Weather History for KCVG - November, 2013

Change the Weather History Date:

Friday, November 1, 2013

  Actual Average Record
Temperature  
Mean Temperature 57 °F 51 °F  
Max Temperature 64 °F 61 °F 80 °F (1982)
Min Temperature 49 °F 41 °F 25 °F (1962)
Degree Days  
Heating Degree Days 8 14  
Month to date heating degree days 8 14  
Since 1 July heating degree days 341 376  
Cooling Degree Days 0 0  
Month to date cooling degree days 0 0  
Year to date cooling degree days 1150 1121  
Growing Degree Days 6 (Base 50)    
Moisture  
Dew Point 47 °F    
Average Humidity 70    
Maximum Humidity 93    
Minimum Humidity 46    
Precipitation  
Precipitation T in 0.12 in 1.65 in (1897)
Month to date precipitation T 0.12  
Year to date precipitation 42.38 35.84  
Snow  
Snow 0.00 in 0.00 in 0.00 in ()
Month to date snowfall 0.0 0.0  
Since 1 July snowfall T 0.4  
Since 1 September snowfall T 0.4  
Snow Depth 0.00 in    
Sea Level Pressure  
Sea Level Pressure 29.65 in    
Wind  
Wind Speed 10 mph (WSW)    
Max Wind Speed 25 mph    
Max Gust Speed 35 mph    
Visibility 10 miles    
Events Rain    
T = Trace of Precipitation, MM = Missing Value Source: NWS Daily Summary

Daily Weather History Graph

Daily Weather History Graph

Search for Another Location

Airport or City:

Trip Planner

Search our weather history database for the weather conditions in past years. The results will help you decide how hot, cold, wet, or windy it might be!

Date:

Astronomy

Nov. 01, 2013 Rise Set
Actual Time 8:06 AM EDT 6:37 PM EDT
Civil Twilight 7:38 AM EDT 7:05 PM EDT
Nautical Twilight 7:07 AM EDT 7:36 PM EDT
Astronomical Twilight 6:35 AM EDT 8:07 PM EDT
Moon 5:58 AM EDT (11/1) 5:29 PM EDT (11/1)
Length of Visible Light 11h 26m
Length of Day
10h 31m
Waning Crescent, 4% of the Moon is Illuminated
Nov 1
Waning Crescent
Nov 3
New
Nov 10
First Quarter
Nov 17
Full
Nov 25
Last Quarter

Hourly Weather History & Observations

Time (EDT) Temp. Dew Point Humidity Pressure Visibility Wind Dir Wind Speed Gust Speed Precip Events Conditions
12:52 AM 57.0 °F 55.0 °F 93% 29.48 in 10.0 mi SW 10.4 mph - 0.04 in Rain Light Rain
1:27 AM 57.2 °F 55.4 °F 94% 29.49 in 10.0 mi WSW 9.2 mph - 0.00 in   Overcast
1:43 AM 57.2 °F 55.4 °F 94% 29.48 in 10.0 mi SW 8.1 mph - 0.00 in   Overcast
1:52 AM 57.0 °F 55.0 °F 93% 29.47 in 10.0 mi SW 8.1 mph - 0.00 in   Overcast
2:52 AM 57.9 °F 54.0 °F 87% 29.51 in 10.0 mi SW 12.7 mph 20.7 mph N/A   Mostly Cloudy
3:52 AM 57.0 °F 53.1 °F 87% 29.55 in 10.0 mi West 16.1 mph 21.9 mph N/A   Mostly Cloudy
4:52 AM 54.0 °F 50.0 °F 86% 29.59 in 10.0 mi West 18.4 mph 24.2 mph N/A   Mostly Cloudy
5:29 AM 53.6 °F 48.2 °F 82% 29.63 in 10.0 mi WSW 8.1 mph 17.3 mph N/A   Partly Cloudy
5:52 AM 52.0 °F 48.0 °F 86% 29.63 in 10.0 mi WSW 9.2 mph 20.7 mph N/A   Partly Cloudy
6:52 AM 50.0 °F 46.0 °F 86% 29.65 in 10.0 mi WSW 5.8 mph - N/A   Clear
7:52 AM 48.9 °F 46.0 °F 90% 29.67 in 10.0 mi SSW 6.9 mph - N/A   Partly Cloudy
8:11 AM 48.2 °F 46.4 °F 93% 29.69 in 10.0 mi SSW 9.2 mph - N/A   Mostly Cloudy
8:24 AM 48.2 °F 46.4 °F 93% 29.69 in 10.0 mi SW 6.9 mph - N/A   Scattered Clouds
8:52 AM 50.0 °F 46.9 °F 89% 29.70 in 10.0 mi SW 6.9 mph - N/A   Scattered Clouds
8:59 AM 50.0 °F 46.4 °F 87% 29.71 in 10.0 mi SW 8.1 mph - N/A   Mostly Cloudy
9:28 AM 51.8 °F 46.4 °F 82% 29.72 in 10.0 mi SW 10.4 mph - N/A   Scattered Clouds
9:52 AM 51.1 °F 46.9 °F 86% 29.71 in 10.0 mi SW 12.7 mph 17.3 mph N/A   Partly Cloudy
10:52 AM 54.0 °F 46.9 °F 77% 29.71 in 10.0 mi SW 11.5 mph 23.0 mph N/A   Scattered Clouds
11:52 AM 57.0 °F 46.9 °F 69% 29.70 in 10.0 mi WSW 11.5 mph 21.9 mph N/A   Partly Cloudy
12:52 PM 59.0 °F 46.9 °F 64% 29.70 in 10.0 mi SW 13.8 mph 21.9 mph N/A   Scattered Clouds
1:52 PM 62.1 °F 45.0 °F 53% 29.67 in 10.0 mi SW 13.8 mph 23.0 mph N/A   Mostly Cloudy
2:52 PM 62.1 °F 44.1 °F 52% 29.66 in 10.0 mi West 12.7 mph 19.6 mph N/A   Mostly Cloudy
3:52 PM 62.1 °F 43.0 °F 50% 29.65 in 10.0 mi WSW 8.1 mph - N/A   Mostly Cloudy
4:52 PM 62.1 °F 41.0 °F 46% 29.65 in 10.0 mi WSW 10.4 mph - N/A   Mostly Cloudy
5:52 PM 61.0 °F 41.0 °F 48% 29.66 in 10.0 mi SW 8.1 mph - N/A   Overcast
6:52 PM 60.1 °F 41.0 °F 49% 29.68 in 10.0 mi WSW 3.5 mph - N/A   Overcast
7:52 PM 59.0 °F 42.1 °F 53% 29.70 in 10.0 mi West 5.8 mph - N/A   Overcast
8:52 PM 57.0 °F 44.1 °F 62% 29.72 in 10.0 mi West 10.4 mph - N/A   Mostly Cloudy
9:52 PM 54.0 °F 44.1 °F 69% 29.73 in 10.0 mi West 9.2 mph - N/A   Overcast
10:52 PM 53.1 °F 45.0 °F 74% 29.75 in 10.0 mi West 6.9 mph - N/A   Mostly Cloudy
11:52 PM 53.1 °F 42.1 °F 66% 29.76 in 10.0 mi NW 12.7 mph - N/A   Overcast